Preview of NWS' New Version of Forecast
This preview is not operational and should not be used for support decisions.

Regional Weather Roundup (RWR)

Issued by National Weather Service (NWS)

                            
000
ASCA42 TJSJ 200710
RWRPR 
PUERTO RICO/U.S. VIRGIN ISLANDS HOURLY WEATHER ROUNDUP
NATIONAL WEATHER SERVICE SAN JUAN PR
300 AM AST TUE AUG 20 2019

PRZ001>002-007>008-010-200800-
PUERTO RICO
  
CITY           SKY/WX    TMP DP  RH WIND       PRES   REMARKS
SAN JUAN LMM   PTCLDY    81  77  89 CALM      30.01S                  
CEIBA          MOCLDY    82  77  83 E7        30.02S HX  91           
$$

VIZ001>002-200800-
U.S. VIRGIN ISLANDS
  
CITY           SKY/WX    TMP DP  RH WIND       PRES   REMARKS
CHARLOTTE AMA  CLEAR     81  75  83 E6        30.00S                  
CHRISTIANSTED  PTCLDY    81  75  83 E8        29.99F                  
$$

HOURLY WEATHER ROUNDUP FOR THE NEWS MEDIA
  
CITY           SKY/WX    TMP DP  RH WIND       PRES   REMARKS
ORLANDO        FAIR      77  73  87 NE3       30.08F                  
NEW YORK       MOCLDY    76  74  93 W6        30.02S                  
NEWARK         MOCLDY    75  69  81 SW5       30.02S                  
CHICAGO        FAIR      74  71  91 CALM      30.00F                  
HARTFORD       FAIR      69  67  93 CALM      30.00R                  
BOSTON         FAIR      78  66  66 W7        29.98R                  
DALLAS         PTCLDY    89  69  51 S10       29.97F HX  93           
PHILADELPHIA   MOCLDY    78  75  90 CALM      30.03S                  
LOS ANGELES    CLEAR     69  61  75 S5        29.91S                  
WASHINGTON DC  CLOUDY    72  69  90 CALM      30.05S